BOX704 EDDP-LIMC

Flight info

Callsign BOX704
Flight time N/A
Altitude 40000
Route NEVKO2S/26L NEVKO Q243 BAMKI Z94 KOMIB DCT TEDGO DCT SONOM/N0470F410 DCT GERSA DCT SOSON DCT DEGAD Z424 RIXUV
Aircraft B77L/H-SDE1E2E3FGHIJ2J3J4J5M1RWXYZ/LB1D1

Departure

Time N/A
Airport Leipzig/Halle Airport (EDDP)

Arrival

Time 2026-05-03 20:46
Airport Milan Malpensa International Airport (LIMC)
Time Latitude Longitude Altitude Speed Heading
2026-05-03 20:15 47.52378 8.76765 40068 ft 443 kts 201°
2026-05-03 20:15 47.46543 8.73907 40065 ft 442 kts 201°
2026-05-03 20:16 47.40716 8.71058 40073 ft 441 kts 201°
2026-05-03 20:16 47.34884 8.68212 40077 ft 441 kts 201°
2026-05-03 20:17 47.29054 8.65374 40077 ft 441 kts 201°
2026-05-03 20:17 47.23226 8.62543 40068 ft 441 kts 201°
2026-05-03 20:18 47.17391 8.59714 40059 ft 441 kts 201°
2026-05-03 20:18 47.11565 8.56897 40065 ft 441 kts 201°
2026-05-03 20:19 47.05672 8.54404 40056 ft 444 kts 193°
2026-05-03 20:19 46.99498 8.53764 40068 ft 450 kts 181°
2026-05-03 20:20 46.93243 8.54621 40083 ft 452 kts 177°
2026-05-03 20:20 46.90173 8.55113 39961 ft 449 kts 177°
2026-05-03 20:20 46.87058 8.55603 39387 ft 449 kts 178°
2026-05-03 20:20 46.83959 8.56072 38700 ft 447 kts 178°
2026-05-03 20:21 46.80878 8.56524 37893 ft 445 kts 178°
2026-05-03 20:21 46.77804 8.56968 37075 ft 443 kts 178°
2026-05-03 20:21 46.74738 8.57408 36295 ft 442 kts 178°
2026-05-03 20:21 46.71675 8.57838 35444 ft 443 kts 178°
2026-05-03 20:22 46.68610 8.58270 34696 ft 440 kts 178°
2026-05-03 20:22 46.65583 8.58705 34097 ft 435 kts 178°
2026-05-03 20:22 46.62577 8.59135 33380 ft 432 kts 178°
2026-05-03 20:22 46.59599 8.59558 32728 ft 428 kts 178°
2026-05-03 20:23 46.56657 8.59973 32109 ft 424 kts 178°
2026-05-03 20:23 46.53729 8.60382 31485 ft 420 kts 178°
2026-05-03 20:23 46.50830 8.60788 30866 ft 417 kts 177°
2026-05-03 20:23 46.47953 8.61189 30279 ft 411 kts 178°
2026-05-03 20:24 46.45119 8.61129 29597 ft 406 kts 191°
2026-05-03 20:24 46.42384 8.60192 28957 ft 404 kts 200°
2026-05-03 20:24 46.39830 8.58584 28298 ft 400 kts 212°
2026-05-03 20:24 46.37497 8.56418 27728 ft 397 kts 214°
2026-05-03 20:25 46.35172 8.54249 27070 ft 397 kts 214°
2026-05-03 20:25 46.32833 8.52136 26493 ft 395 kts 213°
2026-05-03 20:25 46.30485 8.50059 25887 ft 391 kts 211°
2026-05-03 20:25 46.27978 8.48530 25292 ft 394 kts 198°
2026-05-03 20:26 46.25282 8.47781 24735 ft 395 kts 189°
2026-05-03 20:26 46.22522 8.47750 24161 ft 399 kts 178°
2026-05-03 20:26 46.19772 8.48238 23544 ft 399 kts 176°
2026-05-03 20:26 46.17024 8.48705 22925 ft 396 kts 177°
2026-05-03 20:27 46.14286 8.49123 22319 ft 395 kts 178°
2026-05-03 20:27 46.11579 8.49691 21744 ft 395 kts 172°
2026-05-03 20:27 46.08916 8.50672 21179 ft 394 kts 165°
2026-05-03 20:27 46.06350 8.52025 20620 ft 393 kts 162°
2026-05-03 20:28 46.03799 8.53433 20088 ft 391 kts 162°
2026-05-03 20:28 46.01272 8.54820 19515 ft 388 kts 162°
2026-05-03 20:28 45.98753 8.56190 18980 ft 387 kts 162°
2026-05-03 20:28 45.96233 8.57552 18417 ft 386 kts 162°
2026-05-03 20:29 45.93723 8.58899 17771 ft 385 kts 162°
2026-05-03 20:29 45.91217 8.60241 17172 ft 382 kts 162°
2026-05-03 20:29 45.88824 8.61875 16597 ft 383 kts 149°
2026-05-03 20:29 45.86743 8.64258 16068 ft 382 kts 142°
2026-05-03 20:30 45.84747 8.66711 15514 ft 381 kts 143°
2026-05-03 20:30 45.82717 8.69145 14942 ft 379 kts 143°
2026-05-03 20:30 45.80681 8.71524 14410 ft 376 kts 144°
2026-05-03 20:30 45.78650 8.73863 13853 ft 374 kts 144°
2026-05-03 20:31 45.76622 8.76182 13265 ft 372 kts 145°
2026-05-03 20:31 45.74541 8.78150 12666 ft 340 kts 153°
2026-05-03 20:31 45.72517 8.79660 12211 ft 324 kts 156°
2026-05-03 20:31 45.70488 8.81098 11720 ft 328 kts 156°
2026-05-03 20:32 45.68474 8.82567 11493 ft 314 kts 155°
2026-05-03 20:32 45.66620 8.83967 11328 ft 290 kts 154°
2026-05-03 20:32 45.64911 8.85276 11221 ft 271 kts 154°
2026-05-03 20:32 45.63265 8.86536 11129 ft 269 kts 154°
2026-05-03 20:33 45.61611 8.87739 10946 ft 264 kts 161°
2026-05-03 20:33 45.59826 8.88396 10669 ft 267 kts 171°
2026-05-03 20:33 45.58003 8.88883 10545 ft 264 kts 171°
2026-05-03 20:33 45.56235 8.89361 10372 ft 255 kts 171°
2026-05-03 20:34 45.54506 8.89826 10014 ft 253 kts 171°
2026-05-03 20:34 45.52761 8.90292 9400 ft 258 kts 170°
2026-05-03 20:34 45.50982 8.90767 8812 ft 262 kts 170°
2026-05-03 20:34 45.49176 8.91249 8235 ft 266 kts 170°
2026-05-03 20:35 45.47347 8.91737 7654 ft 269 kts 169°
2026-05-03 20:35 45.45504 8.92230 7157 ft 269 kts 169°
2026-05-03 20:35 45.43666 8.92720 6713 ft 267 kts 169°
2026-05-03 20:35 45.41844 8.93206 6249 ft 265 kts 169°
2026-05-03 20:36 45.40034 8.93690 5777 ft 264 kts 169°
2026-05-03 20:36 45.38237 8.94169 5293 ft 262 kts 169°
2026-05-03 20:36 45.36441 8.94648 4806 ft 262 kts 169°
2026-05-03 20:36 45.34648 8.95125 4304 ft 261 kts 169°
2026-05-03 20:37 45.32873 8.95334 4024 ft 256 kts 189°
2026-05-03 20:37 45.31365 8.94230 3994 ft 244 kts 224°
2026-05-03 20:37 45.30456 8.92283 3992 ft 233 kts 243°
2026-05-03 20:37 45.29928 8.90110 3994 ft 227 kts 254°
2026-05-03 20:38 45.29600 8.88008 3962 ft 215 kts 255°
2026-05-03 20:38 45.29306 8.85993 3962 ft 204 kts 259°
2026-05-03 20:38 45.29475 8.83986 3978 ft 209 kts 294°
2026-05-03 20:38 45.30447 8.82547 3995 ft 201 kts 333°
2026-05-03 20:39 45.31752 8.82011 4006 ft 191 kts 348°
2026-05-03 20:39 45.33053 8.81615 3973 ft 191 kts 348°
2026-05-03 20:39 45.34344 8.81241 3965 ft 192 kts 348°
2026-05-03 20:39 45.35662 8.80873 3988 ft 193 kts 349°
2026-05-03 20:40 45.36974 8.80512 3978 ft 192 kts 349°
2026-05-03 20:40 45.38286 8.80153 3900 ft 193 kts 349°
2026-05-03 20:40 45.39596 8.79795 3783 ft 190 kts 349°
2026-05-03 20:40 45.40891 8.79440 3683 ft 190 kts 349°
2026-05-03 20:41 45.42196 8.79082 3578 ft 191 kts 348°
2026-05-03 20:41 45.43503 8.78723 3513 ft 191 kts 349°
2026-05-03 20:41 45.44362 8.78488 3448 ft 187 kts 349°
2026-05-03 20:41 45.45625 8.78142 3329 ft 183 kts 348°
2026-05-03 20:42 45.46881 8.77796 3236 ft 184 kts 348°
2026-05-03 20:42 45.48134 8.77452 3142 ft 182 kts 348°
2026-05-03 20:42 45.49347 8.77118 3058 ft 172 kts 348°
2026-05-03 20:42 45.50503 8.76800 2929 ft 168 kts 348°
2026-05-03 20:43 45.51627 8.76491 2684 ft 159 kts 348°
2026-05-03 20:43 45.52675 8.76203 2483 ft 148 kts 348°
2026-05-03 20:43 45.53681 8.75926 2306 ft 148 kts 347°
2026-05-03 20:43 45.54694 8.75646 2104 ft 149 kts 347°
2026-05-03 20:44 45.55711 8.75366 1898 ft 148 kts 346°
2026-05-03 20:44 45.56714 8.75089 1702 ft 146 kts 347°
2026-05-03 20:44 45.57707 8.74828 1509 ft 144 kts 347°
2026-05-03 20:44 45.58688 8.74541 1314 ft 143 kts 344°
2026-05-03 20:45 45.59660 8.74238 1154 ft 141 kts 347°
2026-05-03 20:45 45.60628 8.73986 1016 ft 143 kts 347°
2026-05-03 20:45 45.61607 8.73727 838 ft 143 kts 348°
2026-05-03 20:45 45.62560 8.73473 762 ft 131 kts 347°
2026-05-03 20:46 45.63339 8.73258 763 ft 96 kts 349°
2026-05-03 20:46 45.63876 8.73106 757 ft 61 kts 348°
2026-05-03 20:46 45.64203 8.73013 754 ft 35 kts 344°
2026-05-03 20:46 45.64335 8.72841 755 ft 10 kts 305°
2026-05-03 20:47 45.64379 8.72736 758 ft 12 kts 286°
2026-05-03 20:47 45.64355 8.72672 760 ft 8 kts 204°
2026-05-03 20:47 45.64318 8.72673 758 ft 0 kts 169°
2026-05-03 20:49 45.64288 8.72683 756 ft 20 kts 165°
2026-05-03 20:49 45.64177 8.72723 760 ft 19 kts 167°
2026-05-03 20:49 45.64069 8.72754 761 ft 13 kts 170°
2026-05-03 20:50 45.64041 8.72761 759 ft 0 kts 171°
2026-05-03 20:51 45.64035 8.72762 761 ft 5 kts 171°
2026-05-03 20:51 45.63954 8.72772 759 ft 9 kts 195°
2026-05-03 20:51 45.63917 8.72728 758 ft 2 kts 248°
2026-05-03 20:51 45.63917 8.72692 759 ft 5 kts 281°
2026-05-03 20:52 45.63927 8.72629 761 ft 8 kts 283°
2026-05-03 20:52 45.63942 8.72518 763 ft 18 kts 274°
2026-05-03 20:52 45.63926 8.72329 763 ft 12 kts 257°
2026-05-03 20:52 45.63912 8.72193 759 ft 22 kts 265°
2026-05-03 20:53 45.63904 8.72013 759 ft 10 kts 265°
2026-05-03 20:53 45.63891 8.71902 761 ft 12 kts 249°
2026-05-03 20:53 45.63817 8.71835 761 ft 14 kts 186°
2026-05-03 20:53 45.63708 8.71853 761 ft 17 kts 170°
2026-05-03 20:54 45.63582 8.71890 764 ft 20 kts 169°
2026-05-03 20:54 45.63284 8.71969 759 ft 24 kts 167°
2026-05-03 20:54 45.63114 8.72019 764 ft 26 kts 169°
2026-05-03 20:55 45.62942 8.72066 759 ft 24 kts 169°
2026-05-03 20:55 45.62772 8.72114 756 ft 26 kts 168°
2026-05-03 20:55 45.62602 8.72163 762 ft 23 kts 169°
2026-05-03 20:55 45.62447 8.72203 762 ft 22 kts 170°
2026-05-03 20:56 45.62311 8.72238 762 ft 16 kts 169°
2026-05-03 20:56 45.62199 8.72270 759 ft 16 kts 168°
2026-05-03 20:56 45.62081 8.72303 762 ft 18 kts 169°
2026-05-03 20:56 45.61946 8.72340 760 ft 21 kts 169°
2026-05-03 20:57 45.61800 8.72379 757 ft 22 kts 169°
2026-05-03 20:57 45.61644 8.72423 762 ft 24 kts 169°
2026-05-03 20:57 45.61525 8.72456 760 ft 12 kts 168°
2026-05-03 20:57 45.61444 8.72466 762 ft 11 kts 195°
2026-05-03 20:58 45.61405 8.72396 759 ft 10 kts 250°
2026-05-03 20:58 45.61386 8.72292 757 ft 7 kts 258°
2026-05-03 20:58 45.61361 8.72219 759 ft 9 kts 217°
2026-05-03 20:58 45.61292 8.72210 760 ft 12 kts 172°
2026-05-03 20:59 45.61218 8.72229 762 ft 7 kts 169°
2026-05-03 20:59 45.61164 8.72214 760 ft 9 kts 216°
2026-05-03 20:59 45.61112 8.72150 755 ft 11 kts 203°
2026-05-03 20:59 45.61055 8.72138 757 ft 8 kts 207°
2026-05-03 21:00 45.61033 8.72078 764 ft 6 kts 254°
2026-05-03 21:00 45.61027 8.72037 757 ft 4 kts 258°
2026-05-03 21:00 45.61023 8.72010 762 ft 0 kts 259°